Weather History for KFNL - October, 2011

Change the Weather History Date:

Wednesday, October 12, 2011

  Actual Average Record
Temperature  
Mean Temperature 58 °F -  
Max Temperature 68 °F 64 °F 84 °F (1996)
Min Temperature 48 °F 36 °F 28 °F (2002)
Degree Days  
Heating Degree Days 7    
Growing Degree Days 8 (Base 50)    
Moisture  
Dew Point 29 °F    
Average Humidity 34    
Maximum Humidity 51    
Minimum Humidity 21    
Precipitation  
Precipitation 0.00 in - - ()
Sea Level Pressure  
Sea Level Pressure 30.05 in    
Wind  
Wind Speed 14 mph (West)    
Max Wind Speed 23 mph    
Max Gust Speed 32 mph    
Visibility 10 miles    
Events      
Averages and records for this station are not official NWS values.
T = Trace of Precipitation, MM = Missing Value Source: NWS Daily Summary

Daily Weather History Graph

Daily Weather History Graph

Search for Another Location

Airport or City:

Trip Planner

Search our weather history database for the weather conditions in past years. The results will help you decide how hot, cold, wet, or windy it might be!

Date:

Astronomy

Oct. 12, 2011 Rise Set
Actual Time 7:07 AM MDT 6:24 PM MDT
Civil Twilight 6:40 AM MDT 6:52 PM MDT
Nautical Twilight 6:08 AM MDT 7:23 PM MDT
Astronomical Twilight 5:36 AM MDT 7:55 PM MDT
Moon 6:27 PM MDT (10/12) 7:45 AM MDT (10/12)
Length of Visible Light 12h 12m
Length of Day
11h 17m
Full, 100% of the Moon is Illuminated
Oct 12
Full
Oct 19
Last Quarter
Oct 26
New
Nov 2
First Quarter
Nov 10
Full

Hourly Weather History & Observations

Time (MDT) Temp. Windchill Dew Point Humidity Pressure Visibility Wind Dir Wind Speed Gust Speed Precip Events Conditions
12:15 AM 53.6 °F - 35.6 °F 51% 29.94 in 10.0 mi NW 12.7 mph - N/A   Mostly Cloudy
12:35 AM 55.4 °F - 35.6 °F 47% 29.95 in 10.0 mi NW 18.4 mph 28.8 mph N/A   Mostly Cloudy
12:55 AM 55.4 °F - 35.6 °F 47% 29.95 in 10.0 mi WNW 23.0 mph - N/A   Overcast
1:35 AM 55.4 °F - 35.6 °F 47% 29.96 in 10.0 mi NW 23.0 mph 26.5 mph N/A   Overcast
1:55 AM 55.4 °F - 33.8 °F 44% 29.98 in 10.0 mi NW 16.1 mph 27.6 mph N/A   Overcast
2:15 AM 55.4 °F - 33.8 °F 44% 29.99 in 10.0 mi WNW 12.7 mph - N/A   Scattered Clouds
2:35 AM 53.6 °F - 32.0 °F 44% 30.00 in 10.0 mi WNW 9.2 mph - N/A   Partly Cloudy
2:55 AM 53.6 °F - 30.2 °F 41% 30.00 in 10.0 mi NW 10.4 mph 16.1 mph N/A   Clear
3:15 AM 55.4 °F - 28.4 °F 36% 29.99 in 10.0 mi West 21.9 mph 29.9 mph N/A   Clear
3:35 AM 55.4 °F - 26.6 °F 33% 30.00 in 10.0 mi West 21.9 mph 32.2 mph N/A   Clear
3:55 AM 53.6 °F - 28.4 °F 38% 30.00 in 10.0 mi West 17.3 mph 23.0 mph N/A   Clear
4:15 AM 53.6 °F - 26.6 °F 35% 30.01 in 10.0 mi NW 17.3 mph 27.6 mph N/A   Clear
4:35 AM 51.8 °F - 26.6 °F 38% 30.02 in 10.0 mi WNW 12.7 mph - N/A   Clear
4:55 AM 53.6 °F - 24.8 °F 33% 30.02 in 10.0 mi WNW 15.0 mph 23.0 mph N/A   Clear
5:35 AM 51.8 °F - 26.6 °F 38% 30.03 in 10.0 mi WNW 23.0 mph - N/A   Clear
5:55 AM 51.8 °F - 26.6 °F 38% 30.04 in 10.0 mi NNW 20.7 mph 26.5 mph N/A   Clear
6:15 AM 51.8 °F - 26.6 °F 38% 30.04 in 10.0 mi NNW 17.3 mph - N/A   Clear
6:35 AM 51.8 °F - 26.6 °F 38% 30.04 in 10.0 mi North 19.6 mph - N/A   Clear
6:55 AM 50.0 °F - 26.6 °F 40% 30.05 in 10.0 mi North 19.6 mph 24.2 mph N/A   Clear
7:15 AM 50.0 °F - 26.6 °F 40% 30.06 in 10.0 mi North 13.8 mph - N/A   Clear
7:35 AM 48.2 °F - 26.6 °F 43% 30.07 in 10.0 mi North 9.2 mph - N/A   Clear
7:55 AM 50.0 °F - 28.4 °F 43% 30.08 in 10.0 mi NNE 10.4 mph - N/A   Clear
8:15 AM 51.8 °F - 28.4 °F 41% 30.08 in 10.0 mi NNE 10.4 mph - N/A   Clear
8:35 AM 51.8 °F - 28.4 °F 41% 30.09 in 10.0 mi NNE 12.7 mph - N/A   Clear
9:15 AM 55.4 °F - 28.4 °F 36% 30.10 in 10.0 mi North 13.8 mph 19.6 mph N/A   Clear
9:35 AM 55.4 °F - 28.4 °F 36% 30.10 in 10.0 mi North 13.8 mph - N/A   Clear
9:55 AM 57.2 °F - 28.4 °F 33% 30.11 in 10.0 mi North 12.7 mph - N/A   Clear
10:15 AM 57.2 °F - 28.4 °F 33% 30.10 in 10.0 mi North 13.8 mph - N/A   Clear
10:35 AM 57.2 °F - 26.6 °F 31% 30.10 in 10.0 mi North 10.4 mph - N/A   Clear
10:55 AM 57.2 °F - 28.4 °F 33% 30.10 in 10.0 mi NE 6.9 mph - N/A   Clear
11:15 AM 59.0 °F - 26.6 °F 29% 30.10 in 10.0 mi East 5.8 mph - N/A   Clear
11:35 AM 60.8 °F - 26.6 °F 27% 30.10 in 10.0 mi Calm Calm - N/A   Clear
11:55 AM 62.6 °F - 28.4 °F 27% 30.09 in 10.0 mi ESE 5.8 mph - N/A   Clear
12:15 PM 62.6 °F - 26.6 °F 26% 30.09 in 10.0 mi SE 5.8 mph - N/A   Clear
12:35 PM 62.6 °F - 26.6 °F 26% 30.08 in 10.0 mi ESE 5.8 mph - N/A   Clear
1:35 PM 64.4 °F - 26.6 °F 24% 30.05 in 10.0 mi SSE 12.7 mph 17.3 mph N/A   Clear
1:55 PM 66.2 °F - 28.4 °F 24% 30.04 in 10.0 mi South 13.8 mph 18.4 mph N/A   Clear
2:15 PM 66.2 °F - 26.6 °F 23% 30.04 in 10.0 mi South 11.5 mph 17.3 mph N/A   Clear
2:35 PM 66.2 °F - 28.4 °F 24% 30.04 in 10.0 mi South 11.5 mph - N/A   Clear
2:55 PM 66.2 °F - 28.4 °F 24% 30.04 in 10.0 mi South 12.7 mph 19.6 mph N/A   Clear
3:35 PM 66.2 °F - 28.4 °F 24% 30.04 in 10.0 mi SE 11.5 mph - N/A   Clear
3:55 PM 66.2 °F - 28.4 °F 24% 30.04 in 10.0 mi SE 10.4 mph - N/A   Clear
4:15 PM 66.2 °F - 28.4 °F 24% 30.04 in 10.0 mi SE 10.4 mph - N/A   Clear
4:35 PM 68.0 °F - 26.6 °F 21% 30.04 in 10.0 mi SSE 8.1 mph - N/A   Clear
4:55 PM 66.2 °F - 26.6 °F 23% 30.05 in 10.0 mi South 12.7 mph - N/A   Clear
5:15 PM 66.2 °F - 26.6 °F 23% 30.05 in 10.0 mi South 9.2 mph - N/A   Clear
5:35 PM 64.4 °F - 26.6 °F 24% 30.06 in 10.0 mi SSE 9.2 mph - N/A   Clear
5:55 PM 64.4 °F - 26.6 °F 24% 30.06 in 10.0 mi SSE 8.1 mph - N/A   Clear
6:35 PM 57.2 °F - 28.4 °F 33% 30.08 in 10.0 mi SSE 5.8 mph - N/A   Clear
6:55 PM 57.2 °F - 28.4 °F 33% 30.08 in 10.0 mi South 5.8 mph - N/A   Clear
7:15 PM 57.2 °F - 28.4 °F 33% 30.09 in 10.0 mi SSW 4.6 mph - N/A   Clear
7:35 PM 55.4 °F - 28.4 °F 36% 30.09 in 10.0 mi SSW 8.1 mph - N/A   Clear
7:55 PM 55.4 °F - 28.4 °F 36% 30.09 in 10.0 mi South 4.6 mph - N/A   Clear
8:15 PM 53.6 °F - 30.2 °F 41% 30.10 in 10.0 mi SSE 6.9 mph - N/A   Clear
8:35 PM 51.8 °F - 30.2 °F 44% 30.10 in 10.0 mi South 8.1 mph - N/A   Clear
8:55 PM 51.8 °F - 28.4 °F 41% 30.10 in 10.0 mi South 9.2 mph - N/A   Clear
9:15 PM 51.8 °F - 30.2 °F 44% 30.11 in 10.0 mi SSE 9.2 mph - N/A   Clear
9:35 PM 48.2 °F - 30.2 °F 50% 30.11 in 10.0 mi SE 8.1 mph - N/A   Clear
10:15 PM 48.2 °F - 30.2 °F 50% 30.11 in 10.0 mi SSE 10.4 mph - N/A   Clear
10:35 PM 48.2 °F - 30.2 °F 50% 30.11 in 10.0 mi ESE 10.4 mph - N/A   Clear
10:55 PM 46.4 °F 44.3 °F 28.4 °F 50% 30.12 in 10.0 mi SW 4.6 mph - N/A   Clear
11:15 PM 44.6 °F - 28.4 °F 53% 30.12 in 10.0 mi Calm Calm - N/A   Clear
11:35 PM 46.4 °F - 30.2 °F 53% 30.12 in 10.0 mi Calm Calm - N/A   Clear
11:55 PM 46.4 °F 45.2 °F 30.2 °F 53% 30.11 in 10.0 mi NE 3.5 mph - N/A   Clear